Location: Orange Harbor Mobile Home Park
(26.6923°N, 81.7937°W)
Time: 08:39:09
(UTC+00:00)

Cosmos 1500 - Pass Details

Date: 19 September 2020
Orbit: 498 x 520 km, 82.5° (Epoch: 29 October)

Event Time Altitude Azimuth Distance (km) Brightness Sun altitude
Rises 09:19:40 0° 1° (N) 2,635 7.0 -26.2°
Reaches altitude 10° 09:21:52 10° 6° (N) 1,742 6.1 -25.7°
Maximum altitude 09:25:35 50° 83° (E) 654 4.0 -24.9°
Drops below altitude 10° 09:29:15 10° 160° (SSE) 1,720 5.9 -24.1°
Sets 09:31:24 0° 165° (SSE) 2,598 6.8 -23.6°
